Location: Sawyer Lake
(45.2517°N, 88.7550°W)
Time: 20:45:48
(UTC-05:00)

Daily predictions for brighter satellites

Satellite Brightness Start Highest point End
(mag) Time Altitude Azimuth Time Altitude Azimuth Time Altitude Azimuth
USA 234 4.1 21:11:49 10° ENE 21:17:15 27° SE 21:22:38 10° S
Helios 1A 3.5 21:14:43 10° S 21:18:48 61° WSW 21:22:56 10° NNW
Cosmos 1850 Rocket 4.0 21:17:32 10° SSW 21:22:42 78° ESE 21:27:56 10° NNE
NOAA 11 4.3 21:18:17 10° SSE 21:23:37 63° ENE 21:29:00 10° N
Cosmos 1459 Rocket 4.1 21:18:12 10° N 21:24:31 67° E 21:30:40 10° SSE
Lacrosse 4 Rocket 3.9 21:21:14 10° WSW 21:25:01 29° NW 21:28:53 10° NNE
ERS-1 Rocket 3.0 21:23:15 10° SSE 21:28:16 76° ENE 21:33:19 10° N
Terra 3.7 21:25:28 10° E 21:28:24 16° ENE 21:31:19 10° NNE
Cosmos 2100 Rocket 4.1 21:24:03 10° N 21:30:23 79° E 21:36:45 10° SSE
Cosmos 1184 Rocket 4.4 21:29:01 10° SSW 21:32:12 40° WNW 21:35:26 10° N
Cosmos 332 Rocket 4.4 21:27:31 10° N 21:32:13 44° ENE 21:36:55 10° SE
Cosmos 2061 Rocket 4.1 21:31:09 10° N 21:37:33 76° E 21:43:58 10° SSE
Cosmos 1356 Rocket 3.5 21:34:07 10° S 21:38:21 75° E 21:42:40 10° NNE
Cosmos 2173 Rocket 4.0 21:34:02 10° N 21:40:14 85° E 21:46:28 10° S
MetOp-B 4.2 21:36:04 10° SSE 21:41:24 76° ENE 21:46:47 10° N
Cosmos 2297 Rocket 3.8 21:37:00 10° SW 21:42:18 40° NW 21:47:39 10° NNE
Cosmos 2123 Rocket 4.5 21:37:19 10° SSE 21:43:04 43° E 21:48:52 10° NNE
H-2A R/B 2.7 21:39:12 10° SE 21:44:14 45° ENE 21:49:24 10° N
YAOGAN 6 3.8 21:40:50 10° S 21:44:17 41° W 21:47:48 10° NNW
Cosmos 1626 4.3 21:45:10 10° ESE 21:46:18 11° E 21:47:26 10° ENE
Cosmos 1741 Rocket 4.5 21:43:00 10° SSW 21:48:17 67° WNW 21:53:36 10° NNE
Cosmos 1726 2.4 21:45:11 10° N 21:48:48 52° E 21:52:04 12° SSE
Cosmos 2263 Rocket 3.4 21:46:58 10° SSE 21:51:11 23° E 21:55:24 10° NE
Cosmos 1300 3.2 21:48:46 10° N 21:52:29 45° ENE 21:55:37 13° SSE
RESURS DK-1 2.4 21:49:04 10° NNW 21:53:16 80° ENE 21:56:54 13° SSE
Meteor 1-21 Rocket 4.3 21:48:33 10° S 21:54:13 86° W 21:59:51 10° N
ATLAS 5 CENTAUR R/B 2.5 21:50:21 10° SW 21:55:00 60° NW 22:00:09 10° NNE
SL-14 R/B 3.8 21:53:30 11° SSE 21:57:05 40° E 22:00:48 10° NNE
Cosmos 1076 Rocket 4.0 21:52:57 10° SSW 21:57:17 65° W 22:01:39 10° N
EO 1 Delta rocket 4.0 21:55:36 12° SSE 21:59:51 57° ENE 22:04:27 10° N
Cosmos 1408 Rocket 3.5 21:56:37 10° S 22:00:55 86° E 22:05:16 10° N
Meteor 2-2 Rocket 4.3 21:56:20 10° N 22:02:08 73° E 22:07:36 12° SSE
Cosmos 1725 Rocket 4.1 21:57:25 10° N 22:03:40 67° E 22:09:19 13° SSE
ERBS 2.4 22:00:34 10° NW 22:03:58 74° NE 22:06:28 17° SE
Cosmos 1802 Rocket 4.2 21:58:45 10° NNW 22:04:53 74° W 22:11:00 10° S
Cosmos 1328 4.1 22:02:47 12° S 22:06:25 51° E 22:10:22 10° NNE
Cosmos 2221 4.4 22:05:23 10° NNW 22:09:11 29° W 22:12:58 10° SSW
Tiangong 1 1.0 22:09:08 10° W 22:11:52 48° S 22:13:23 21° ESE
Cosmos 2151 3.8 22:11:00 17° SSE 22:13:46 35° E 22:17:43 10° NNE
Cosmos 1603 4.0 22:12:03 10° NNW 22:17:41 66° WSW 22:22:24 14° S
Cosmos 1814 Rocket 4.1 22:15:23 10° NNW 22:20:46 83° WSW 22:24:55 17° SSE
Cosmos 1500 Rocket 3.8 22:18:03 16° SSE 22:21:25 52° E 22:25:44 10° NNE
DMSP B5D2-2 4.3 22:17:06 10° NNE 22:22:12 50° E 22:26:17 15° S
Cosmos 371 Rocket 3.3 22:17:21 10° NNW 22:22:12 82° WSW 22:25:49 18° SSE
Cosmos 1455 3.6 22:22:29 10° NNE 22:25:46 25° ENE 22:27:33 18° ESE
CZ-4C R/B 3.9 22:28:14 12° ESE 22:28:32 12° ESE 22:30:40 10° E
ARGOS 3.8 22:24:15 10° S 22:29:31 52° W 22:34:50 10° NNW
Cosmos 1486 Rocket 4.0 22:24:49 10° S 22:30:01 65° ESE 22:35:17 10° NNE
Cosmos 841 Rocket 3.5 22:25:04 10° NNW 22:30:21 76° ENE 22:33:53 21° SSE
SPOT 5 3.6 22:26:16 11° S 22:30:44 53° W 22:35:46 10° NNW
Lacrosse 5 2.4 22:26:28 10° WNW 22:31:18 46° SW 22:34:30 20° SSE
Cosmos 1763 Rocket 3.4 22:26:48 10° NNW 22:31:57 84° WSW 22:35:29 20° SSE
CARTOSAT-1 3.8 22:29:27 22° SE 22:32:06 57° ENE 22:36:21 10° N
Cosmos 1943 3.2 22:27:08 10° NNW 22:32:49 86° ENE 22:36:45 21° SSE
SL-16 R/B 4.4 22:30:09 10° WNW 22:33:47 18° W 22:37:25 10° SW
Abrixas rocket 2.4 22:34:23 10° WNW 22:37:32 51° SSW 22:38:41 32° SSE
SPOT 1/Viking Rocket 3.9 22:35:08 15° S 22:39:20 61° WSW 22:44:28 10° NNW
Cosmos 1328 Rocket 4.2 22:37:24 10° NNW 22:41:37 51° W 22:44:57 15° SSW
Cosmos 1515 Rocket 3.9 22:43:22 10° NNW 22:47:40 61° W 22:50:33 20° S
Cosmos 1151 Rocket 3.1 22:43:32 10° N 22:47:58 80° W 22:50:35 24° S
IGS 5A 3.4 22:48:26 27° SSE 22:50:39 85° ENE 22:54:50 10° NNW
Landsat 7 4.0 22:47:28 20° S 22:50:40 67° WSW 22:55:26 10° NNW
H-2A R/B 2.0 22:51:01 28° SSE 22:53:14 73° ENE 22:57:27 10° N
Cosmos 1743 Rocket 4.2 22:50:22 11° SSW 22:54:28 52° WNW 22:58:44 10° N
SME Rocket 4.1 22:52:50 23° ESE 22:54:46 37° ENE 22:59:13 10° N
Cosmos 2233 Rocket 4.0 22:49:24 10° N 22:55:39 81° W 23:00:00 21° S
Cosmos 2228 Rocket 4.2 22:51:49 10° NNW 22:56:08 41° W 22:59:35 15° SSW
CZ-2C R/B 4.3 22:55:14 10° NE 22:58:19 16° E 22:59:37 14° ESE
Cosmos 1703 3.2 22:57:47 28° S 22:59:46 80° E 23:03:47 10° N
USA 234 3.2 22:54:12 10° NE 23:00:47 90° ESE 23:07:21 10° SW
Terra 2.0 23:02:53 25° S 23:05:36 68° WSW 23:10:22 10° NNW
CZ-4 R/B 3.9 23:03:55 10° NNE 23:08:46 64° ESE 23:11:04 30° S
SL-19 R/B 4.0 23:15:02 43° E 23:15:15 45° ENE 23:18:04 10° N
Cosmos 1503 Rocket 3.9 23:12:35 21° SSW 23:16:05 84° ESE 23:21:18 10° NNE
Cosmos 1626 2.8 23:19:16 25° SW 23:21:09 52° WNW 23:24:49 10° N
Cosmos 304 Rocket 3.9 23:18:37 10° NNW 23:23:23 66° WSW 23:25:22 34° S
H-2A R/B 3.7 23:19:43 12° SSW 23:23:49 27° W 23:28:24 10° NW
Cosmos 2058 3.9 23:21:05 18° SW 23:23:54 45° WNW 23:27:59 10° N
CZ-4B R/B 3.5 23:23:29 10° NNE 23:28:48 79° ESE 23:31:25 30° S
Cosmos 540 Rocket 3.6 23:26:07 10° NNW 23:31:15 68° WSW 23:33:24 34° S
Cosmos 1513 Rocket 4.5 23:25:47 10° N 23:32:01 76° E 23:35:02 32° SSE
Cosmos 2263 Rocket 2.7 23:29:11 10° SW 23:34:39 57° WNW 23:40:11 10° NNE
Cosmos 968 Rocket 4.0 23:33:12 34° SE 23:34:39 42° ESE 23:39:36 10° NE
Spot 4 4.0 23:34:13 34° S 23:36:16 66° WSW 23:41:09 10° NNW
Sich 1 3.0 23:36:53 46° SSE 23:38:02 69° E 23:42:17 10° NNE
PSLV R/B 4.3 23:40:58 29° WSW 23:41:03 29° W 23:43:37 10° NNW
COSMOS 2406 3.5 23:36:31 10° NNW 23:42:09 60° ENE 23:44:53 30° SE
Cosmos 2285 Rocket 4.4 23:37:13 10° NNW 23:43:22 54° WSW 23:46:33 28° SSW
deb Chang Zheng 4 4.3 23:40:06 10° N 23:44:20 50° WNW 23:46:51 23° SW
Cosmos 2034 Rocket 4.0 23:42:12 10° N 23:48:37 87° E 23:51:34 34° S
ALOS 2 3.4 23:48:17 32° ESE 23:49:38 41° ENE 23:53:46 10° N
Cosmos 1707 Rocket 3.8 23:45:12 10° NNW 23:49:39 64° W 23:51:03 41° SSW
DELTA 2 DEB (DPAF) 4.5 23:48:50 38° SSW 23:50:17 56° W 23:54:41 10° NNW
